Date String (YYYY-MM-DD hh:mm:ss) UTC,Instrument flags,absolute air pressure of the measurement (hPa),sample flow rate (lpm),inlet stack bypass flow (lpm),air temperature of the measurement (°C),ambient temperature measured by the external sensor (°C),aerosol sample conditioner tube jacket temperature (°C),OPC LED temperature (°C),internal box temperature (°C),relative humidity of the measurement (%),span deviation,mass concentration of particles derived from Lorenz-Mie calculation of OPC scattering (μg/m³),mass concentration of particles derived from Lorenz-Mie calculation of OPC scattering (μg/m³),mass concentration of particles derived from Lorenz-Mie calculation of OPC scattering (μg/m³)
DateTimeUTC,F1_M11,P_M11,Q1_M11,Q2_M11,T1_M11,T2_M11,T3_M11,T4_M11,T5_M11,U1_M11,ZSPAN_M11,X0_M11,X2_M11,X1_M11
2023-08-06 06:00:00,SystemResetWarning,0839.4,5.00,000.00,029.4,027.1,000.0,038.0,030.9,31.1,0000.0,0006.27,0003.18,0002.62
2023-08-06 06:01:00,SystemResetWarning,0839.4,5.00,000.00,029.4,027.4,000.0,038.0,031.0,31.2,0000.0,0006.18,0003.16,0002.59
2023-08-06 06:02:00,SystemResetWarning,0839.4,5.00,000.00,029.4,027.6,000.0,038.0,031.0,31.1,0000.0,0005.99,0003.14,0002.57
2023-08-06 06:03:00,SystemResetWarning,0839.5,5.00,000.00,029.4,027.8,000.0,038.0,031.1,31.0,0000.0,0005.84,0003.12,0002.54
2023-08-06 06:04:00,SystemResetWarning,0839.5,4.99,000.00,029.4,027.9,000.0,038.0,031.1,31.1,0000.0,0005.85,0003.12,0002.51
2023-08-06 06:05:00,SystemResetWarning,0839.5,5.00,000.00,029.5,028.1,000.0,038.0,031.1,31.0,0000.0,0005.66,0003.06,0002.48
2023-08-06 06:06:00,SystemResetWarning,0839.5,5.00,000.00,029.5,028.2,000.0,038.0,031.2,30.9,0000.0,0005.52,0003.00,0002.46
2023-08-06 06:07:00,SystemResetWarning,0839.5,5.00,000.00,029.5,028.3,000.0,038.1,031.2,30.9,0000.0,0005.73,0002.97,0002.44
2023-08-06 06:08:00,SystemResetWarning,0839.5,4.98,000.00,029.6,028.4,000.0,038.1,031.2,30.9,0000.0,0005.93,0002.96,0002.42
2023-08-06 06:09:00,SystemResetWarning,0839.5,5.00,000.00,029.6,028.4,000.0,038.1,031.3,30.9,0000.0,0006.07,0002.91,0002.40
2023-08-06 06:10:00,SystemResetWarning,0839.4,5.00,000.00,029.6,028.5,000.0,038.1,031.3,30.9,0000.0,0006.35,0002.82,0002.39
2023-08-06 06:11:00,SystemResetWarning,0839.4,5.01,000.00,029.6,028.6,000.0,038.1,031.3,30.8,0000.0,0006.74,0002.77,0002.40
2023-08-06 06:12:00,SystemResetWarning,0839.4,5.00,000.00,029.7,028.6,000.0,038.2,031.4,30.8,0000.0,0006.55,0002.72,0002.40
2023-08-06 06:13:00,SystemResetWarning,0839.4,5.00,000.00,029.7,028.7,000.0,038.2,031.4,30.8,0000.0,0006.55,0002.70,0002.40
2023-08-06 06:14:00,SystemResetWarning,0839.3,4.98,000.00,029.7,027.9,000.0,038.1,031.3,30.8,0000.0,0006.71,0002.75,0002.39
2023-08-06 06:15:00,SystemResetWarning,0839.2,5.00,000.00,029.7,026.0,000.0,038.0,031.0,30.8,0000.0,0006.68,0002.75,0002.38
2023-08-06 06:16:00,SystemResetWarning,0839.3,5.00,000.00,029.6,025.3,000.0,037.9,030.8,31.0,0000.0,0006.69,0002.76,0002.38
2023-08-06 06:17:00,SystemResetWarning,0839.2,5.01,000.00,029.5,025.5,000.0,037.9,030.6,31.2,0000.0,0007.21,0002.78,0002.39
2023-08-06 06:18:00,SystemResetWarning,0839.2,5.01,000.00,029.4,025.8,000.0,038.0,030.6,31.4,0000.0,0007.72,0002.85,0002.40
2023-08-06 06:19:00,SystemResetWarning,0839.2,4.99,000.00,029.4,026.3,000.0,038.0,030.7,31.5,0000.0,0008.02,0002.89,0002.42
2023-08-06 06:20:00,SystemResetWarning,0839.1,4.99,000.00,029.3,026.6,000.0,038.0,030.8,31.5,0000.0,0008.05,0002.94,0002.43
2023-08-06 06:21:00,SystemResetWarning,0839.2,5.00,000.00,029.4,027.0,000.0,038.0,030.9,31.4,0000.0,0007.07,0003.02,0002.43
2023-08-06 06:22:00,SystemResetWarning,0839.2,5.00,000.00,029.4,027.3,000.0,038.0,031.0,31.5,0000.0,0006.50,0003.03,0002.43
2023-08-06 06:23:00,SystemResetWarning,0839.2,5.01,000.00,029.4,027.5,000.0,038.0,031.0,31.5,0000.0,0006.38,0003.04,0002.42
2023-08-06 06:24:00,SystemResetWarning,0839.1,5.00,000.00,029.4,027.7,000.0,038.0,031.0,31.4,0000.0,0006.39,0003.05,0002.43
2023-08-06 06:25:00,SystemResetWarning,0839.1,5.00,000.00,029.4,027.9,000.0,038.0,031.1,31.4,0000.0,0006.26,0003.03,0002.43
2023-08-06 06:26:00,SystemResetWarning,0839.1,4.98,000.00,029.5,028.0,000.0,038.0,031.1,31.3,0000.0,0006.33,0003.06,0002.45
2023-08-06 06:27:00,SystemResetWarning,0839.1,4.99,000.00,029.5,028.2,000.0,038.0,031.2,31.2,0000.0,0006.41,0003.06,0002.46
2023-08-06 06:28:00,SystemResetWarning,0839.1,5.01,000.00,029.5,028.3,000.0,038.1,031.2,31.1,0000.0,0005.98,0003.09,0002.47
2023-08-06 06:29:00,SystemResetWarning,0839.1,5.00,000.00,029.5,028.3,000.0,038.1,031.2,31.1,0000.0,0005.57,0003.08,0002.47
2023-08-06 06:30:00,SystemResetWarning,0839.1,5.01,000.00,029.6,028.4,000.0,038.1,031.3,31.1,0000.0,0006.08,0003.09,0002.46
2023-08-06 06:31:00,SystemResetWarning,0839.1,5.00,000.00,029.6,028.5,000.0,038.1,031.3,31.0,0000.0,0005.97,0003.08,0002.45
2023-08-06 06:32:00,SystemResetWarning,0839.1,5.00,000.00,029.6,028.6,000.0,038.1,031.3,30.9,0000.0,0005.76,0003.04,0002.46
2023-08-06 06:33:00,SystemResetWarning,0839.1,5.00,000.00,029.7,028.6,000.0,038.2,031.4,30.9,0000.0,0005.80,0003.08,0002.46
2023-08-06 06:34:00,SystemResetWarning,0838.9,4.98,000.00,029.7,027.3,000.0,038.1,031.2,30.9,0000.0,0006.01,0003.11,0002.46
2023-08-06 06:35:00,SystemResetWarning,0838.9,5.00,000.00,029.6,025.7,000.0,037.9,030.9,30.9,0000.0,0006.18,0003.13,0002.48
2023-08-06 06:36:00,SystemResetWarning,0838.9,5.00,000.00,029.5,025.3,000.0,037.9,030.6,31.1,0000.0,0006.17,0003.14,0002.49
2023-08-06 06:37:00,SystemResetWarning,0838.9,5.01,000.00,029.4,025.5,000.0,037.9,030.5,31.4,0000.0,0006.10,0003.13,0002.49
2023-08-06 06:38:00,SystemResetWarning,0838.9,5.02,000.00,029.3,025.9,000.0,037.9,030.6,31.5,0000.0,0006.08,0003.12,0002.51
2023-08-06 06:39:00,SystemResetWarning,0838.8,4.99,000.00,029.3,026.3,000.0,037.9,030.7,31.5,0000.0,0006.12,0003.12,0002.51
2023-08-06 06:40:00,SystemResetWarning,0838.8,5.00,000.00,029.3,026.7,000.0,038.0,030.8,31.5,0000.0,0005.90,0003.11,0002.51
2023-08-06 06:41:00,SystemResetWarning,0839.0,5.00,000.00,029.3,027.0,000.0,038.0,030.9,31.5,0000.0,0004.31,0003.07,0002.52
2023-08-06 06:42:00,SystemResetWarning,0839.1,5.00,000.00,029.3,027.3,000.0,038.0,030.9,31.5,0000.0,0004.30,0003.06,0002.53
2023-08-06 06:43:00,SystemResetWarning,0839.1,5.01,000.00,029.3,027.5,000.0,038.0,031.0,31.4,0000.0,0004.32,0003.04,0002.54
2023-08-06 06:44:00,SystemResetWarning,0839.1,5.00,000.00,029.4,027.7,000.0,038.0,031.0,31.4,0000.0,0004.22,0003.00,0002.56
2023-08-06 06:45:00,SystemResetWarning,0839.1,5.00,000.00,029.4,027.9,000.0,038.0,031.1,31.4,0000.0,0004.04,0002.96,0002.56
2023-08-06 06:46:00,SystemResetWarning,0839.1,4.99,000.00,029.4,028.0,000.0,038.0,031.1,31.4,0000.0,0003.98,0002.95,0002.56
2023-08-06 06:47:00,SystemResetWarning,0839.1,4.99,000.00,029.5,028.1,000.0,038.0,031.1,31.3,0000.0,0004.10,0003.00,0002.57
2023-08-06 06:48:00,SystemResetWarning,0839.1,5.00,000.00,029.5,028.2,000.0,038.0,031.2,31.3,0000.0,0004.13,0003.01,0002.56
2023-08-06 06:49:00,SystemResetWarning,0839.1,5.01,000.00,029.5,028.3,000.0,038.0,031.2,31.2,0000.0,0004.16,0003.02,0002.56
2023-08-06 06:50:00,SystemResetWarning,0839.1,5.01,000.00,029.5,028.4,000.0,038.1,031.2,31.1,0000.0,0004.15,0003.02,0002.56
2023-08-06 06:51:00,SystemResetWarning,0839.1,5.00,000.00,029.6,028.4,000.0,038.1,031.3,31.1,0000.0,0004.17,0003.05,0002.56
2023-08-06 06:52:00,SystemResetWarning,0839.1,4.99,000.00,029.6,028.5,000.0,038.1,031.3,31.1,0000.0,0004.30,0003.09,0002.56
2023-08-06 06:53:00,SystemResetWarning,0839.1,4.99,000.00,029.6,028.5,000.0,038.1,031.3,31.0,0000.0,0004.19,0003.08,0002.57
2023-08-06 06:54:00,SystemResetWarning,0839.1,5.00,000.00,029.7,028.6,000.0,038.2,031.3,31.0,0000.0,0004.15,0003.10,0002.58
2023-08-06 06:55:00,SystemResetWarning,0839.1,5.00,000.00,029.7,028.5,000.0,038.2,031.3,31.0,0000.0,0004.22,0003.11,0002.58
2023-08-06 06:56:00,SystemResetWarning,0838.9,5.00,000.00,029.7,027.0,000.0,038.1,031.2,31.0,0000.0,0004.24,0003.12,0002.61
2023-08-06 06:57:00,SystemResetWarning,0838.8,5.00,000.00,029.6,025.6,000.0,037.9,030.9,31.0,0000.0,0004.17,0003.13,0002.63
2023-08-06 06:58:00,SystemResetWarning,0838.9,5.01,000.00,029.5,025.3,000.0,037.9,030.7,31.3,0000.0,0004.07,0003.11,0002.66
2023-08-06 06:59:00,SystemResetWarning,0838.8,5.01,000.00,029.4,025.6,000.0,037.9,030.6,31.5,0000.0,0004.06,0003.11,0002.68
